Location: ?ejkovice
(49.0137°N, 14.3821°E)
Time: 23:32:50
(UTC+00:00)

Cosmos 968 Rocket - Pass Details

Date: 04 August 2024
Orbit: 738 x 767 km, 74.0° (Epoch: 08 September)

Event Time Altitude Azimuth Distance (km) Brightness Sun altitude
Rises 20:44:45 0° 337° (NNW) 3,235 8.3 -16.8°
Reaches altitude 10° 20:47:09 10° 339° (NNW) 2,301 7.2 -17.0°
Maximum altitude 20:52:23 77° 66° (ENE) 779 3.4 -17.5°
Enters shadow 20:54:48 32° 147° (SSE) 1,269 4.1 -17.7°
